[TLELIST] Archives

 

[TLELIST] Current TLEs

July 21st 2023 PDT

HST 1 20580U 90037B 23201.97463756 .00004784 00000-0 24992-3 0 9991 2 20580 28.4703 43.1452 0002741 28.4722 119.0256 15.13524419626855 ISS (ZARYA) 1 25544U 98067A 23202.37653101 .00012609 00000-0 22926-3 0 9997 2 25544 51.6411 159.1226 0000449 68.8075 68.5428 15.49909549407095 CXO 1 25867U 99040B 23202.33485362 .00000551 00000-0 00000+0 0 9993 2 25867 37.4065 192.3521 9056396 266.1190 0.3463 0.37814919 24465 ...Continue Reading

[TLELIST] Current TLEs

July 21st 2023 PDT

HST 1 20580U 90037B 23201.97463756 .00004784 00000-0 24992-3 0 9991 2 20580 28.4703 43.1452 0002741 28.4722 119.0256 15.13524419626855 ISS (ZARYA) 1 25544U 98067A 23202.37653101 .00012609 00000-0 22926-3 0 9997 2 25544 51.6411 159.1226 0000449 68.8075 68.5428 15.49909549407095 CXO 1 25867U 99040B 23202.33485362 .00000551 00000-0 00000+0 0 9993 2 25867 37.4065 192.3521 9056396 266.1190 0.3463 0.37814919 24465 ...Continue Reading

[TLELIST] Current TLEs

July 20th 2023 PDT

HST 1 20580U 90037B 23200.83977042 .00005085 00000-0 26635-3 0 9994 2 20580 28.4703 50.6987 0002722 16.5074 55.1750 15.13514689626675 ISS (ZARYA) 1 25544U 98067A 23201.19134634 .00010982 00000-0 20095-3 0 9998 2 25544 51.6392 164.9972 0000314 45.9683 314.1332 15.49879208406919 CXO 1 25867U 99040B 23202.33485362 .00000551 00000-0 00000+0 0 9993 2 25867 37.4065 192.3521 9056396 266.1190 0.3463 0.37814919 24465 ...Continue Reading

[TLELIST] Current TLEs

July 19th 2023 PDT

HST 1 20580U 90037B 23199.06975017 .00004822 00000-0 25217-3 0 9999 2 20580 28.4704 62.4798 0002643 358.0499 130.2779 15.13497418626401 ISS (ZARYA) 1 25544U 98067A 23200.37575991 .00012941 00000-0 23549-3 0 9996 2 25544 51.6408 169.0318 0000456 88.7800 37.7259 15.49860407406782 CXO 1 25867U 99040B 23202.33485362 .00000551 00000-0 00000+0 0 9993 2 25867 37.4065 192.3521 9056396 266.1190 0.3463 0.37814919 24465 ...Continue Reading

[TLELIST] Current TLEs

July 18th 2023 PDT

HST 1 20580U 90037B 23199.06975017 .00004822 00000-0 25217-3 0 9999 2 20580 28.4704 62.4798 0002643 358.0499 130.2779 15.13497418626401 ISS (ZARYA) 1 25544U 98067A 23199.20929353 .00011602 00000-0 21224-3 0 9991 2 25544 51.6401 174.8082 0000398 82.8464 11.1173 15.49824045406603 CXO 1 25867U 99040B 23199.68965291 .00000464 00000-0 00000+0 0 9993 2 25867 37.4174 192.7120 9057476 265.8137 0.2472 0.37809817 24451 ...Continue Reading

[TLELIST] Current TLEs

July 17th 2023 PDT

HST 1 20580U 90037B 23197.36194767 .00004037 00000-0 20956-3 0 9998 2 20580 28.4701 73.8469 0002524 339.2763 185.4749 15.13481112626157 ISS (ZARYA) 1 25544U 98067A 23198.38129556 .00011350 00000-0 20798-3 0 9991 2 25544 51.6401 178.9102 0000395 78.1423 73.0901 15.49802972406477 CXO 1 25867U 99040B 23199.68965291 .00000464 00000-0 00000+0 0 9993 2 25867 37.4174 192.7120 9057476 265.8137 0.2472 0.37809817 24451 ...Continue Reading

[TLELIST] Current TLEs

July 16th 2023 PDT

HST 1 20580U 90037B 23196.10045424 .00004692 00000-0 24528-3 0 9990 2 20580 28.4700 82.2428 0002446 325.5088 152.3043 15.13472151625956 ISS (ZARYA) 1 25544U 98067A 23197.40878515 .00011659 00000-0 21356-3 0 9992 2 25544 51.6398 183.7300 0000438 84.1024 37.6666 15.49780840406325 CXO 1 25867U 99040B 23199.68965291 .00000464 00000-0 00000+0 0 9993 2 25867 37.4174 192.7120 9057476 265.8137 0.2472 0.37809817 24451 ...Continue Reading

[TLELIST] Current TLEs

July 15th 2023 PDT

HST 1 20580U 90037B 23196.10045424 .00004692 00000-0 24528-3 0 9990 2 20580 28.4700 82.2428 0002446 325.5088 152.3043 15.13472151625956 ISS (ZARYA) 1 25544U 98067A 23196.25752315 .00010681 00000-0 19655-3 0 9996 2 25544 51.6399 189.4314 0000316 68.4700 105.9769 15.49751227406145 CXO 1 25867U 99040B 23197.04454716 .00000348 00000-0 00000+0 0 9997 2 25867 37.4290 193.0631 9057702 265.5110 0.1759 0.37808486 24448 ...Continue Reading

[TLELIST] Current TLEs

July 14th 2023 PDT

HST 1 20580U 90037B 23194.19092035 .00004258 00000-0 22176-3 0 9992 2 20580 28.4697 94.9516 0002381 303.5588 189.5250 15.13455405625672 ISS (ZARYA) 1 25544U 98067A 23195.46614675 .00010182 00000-0 18788-3 0 9996 2 25544 51.6412 193.3466 0000287 80.3851 355.9960 15.49731575406021 CXO 1 25867U 99040B 23197.04454716 .00000348 00000-0 00000+0 0 9997 2 25867 37.4290 193.0631 9057702 265.5110 0.1759 0.37808486 24448 ...Continue Reading

[TLELIST] Current TLEs

July 14th 2023 PDT

HST 1 20580U 90037B 23194.19092035 .00004258 00000-0 22176-3 0 9992 2 20580 28.4697 94.9516 0002381 303.5588 189.5250 15.13455405625672 ISS (ZARYA) 1 25544U 98067A 23195.46614675 .00010182 00000-0 18788-3 0 9996 2 25544 51.6412 193.3466 0000287 80.3851 355.9960 15.49731575406021 CXO 1 25867U 99040B 23197.04454716 .00000348 00000-0 00000+0 0 9997 2 25867 37.4290 193.0631 9057702 265.5110 0.1759 0.37808486 24448 ...Continue Reading
  • This mailing list is a public mailing list - anyone may join or leave, at any time.
  • This mailing list is announce-only.

International Space Station (ISS) / Hubble Space Telescope (HST) / Chandra X-Ray Observatory Orbital Data via EMAIL

Privacy Policy:

Private list